FALCON 9 DEB (47680 NORAD) Tracking and Keplerian Element Data

This shows tracking and keplerian element data for the satellite.

Feedback or suggestion? Click here.




ElementValue
Catalog47680
NameFALCON 9 DEB
Epoch Orbit449
Epoch Day73.08983011
Epoch Year2021
RAAN327.1822
Inclination53.038
Eccentricity0.0011967
Argument of Perigee279.6281
Mean Anonmoly80.3413
Mean Motion16.38160236
Decay Rate0.05251265
L11 47680U 21012BN 21073.08983011 .05251265 12328-4 46153-3 0 9992
L22 47680 53.0380 327.1822 0011967 279.6281 80.3413 16.38160236 4492

Live tracking and technical data element details for FALCON 9 DEB (NORAD 47680). FALCON 9 DEB can be tracked NOW for your location showing map with azimuth and elevation plus other details from your city location.

Track the satellite on the map from your city or location and see movement details for azimuth, elevation, latitude, longitude, range, height, and movement on the map or in text.







IsCatalogInMostPopularTable: catalog: 47680, numindb: 16
Update: records affected: 1



GetName: 47680 FALCON 9 DEB

Hit Count: updated at: Fri, 16 Apr 2021 11:06:51 GMT